�������l�o���
Date,Time,MP-1(��Sv/h),MP-2(��Sv/h),MP-3(��Sv/h),MP-4(��Sv/h),MP-5(��Sv/h),MP-6(��Sv/h),MP-7(��Sv/h),MP-8(��Sv/h),����,����(m/s),���J
2024/04/10,00:00,0.476,0.714,0.460,0.893,0.620,0.303,0.533,0.503,�k�k��,9.6,��
2024/04/10,00:10,0.475,0.715,0.459,0.893,0.619,0.304,0.533,0.503,�k��,7.8,��
2024/04/10,00:20,0.477,0.715,0.461,0.892,0.619,0.302,0.532,0.503,�k��,10.8,��
2024/04/10,00:30,0.477,0.715,0.461,0.894,0.619,0.302,0.532,0.503,�k��,9.4,��
2024/04/10,00:40,0.478,0.715,0.461,0.894,0.617,0.303,0.533,0.503,�k��,9.0,��
2024/04/10,00:50,0.477,0.715,0.460,0.893,0.619,0.304,0.533,0.505,�k�k��,6.3,��
2024/04/10,01:00,0.477,0.715,0.460,0.894,0.620,0.303,0.532,0.503,�k�k��,5.3,��
2024/04/10,01:10,0.478,0.716,0.460,0.894,0.619,0.302,0.532,0.504,�k�k��,4.1,��
2024/04/10,01:20,0.476,0.717,0.460,0.897,0.623,0.303,0.532,0.502,�k�k��,4.4,��
2024/04/10,01:30,0.476,0.716,0.460,0.896,0.620,0.304,0.534,0.504,�k��,6.1,��
2024/04/10,01:40,0.477,0.718,0.460,0.896,0.620,0.302,0.535,0.502,�k��,8.2,��
2024/04/10,01:50,0.479,0.718,0.459,0.894,0.619,0.303,0.531,0.504,�k�k��,5.9,��
2024/04/10,02:00,0.478,0.720,0.460,0.895,0.622,0.302,0.531,0.504,�k�k��,6.9,��
2024/04/10,02:10,0.476,0.717,0.461,0.896,0.621,0.303,0.533,0.505,�k�k��,6.1,��
2024/04/10,02:20,0.477,0.718,0.461,0.896,0.619,0.303,0.533,0.505,�k,6.6,��
2024/04/10,02:30,0.478,0.718,0.462,0.895,0.622,0.303,0.532,0.503,�k�k��,6.5,��
2024/04/10,02:40,0.478,0.719,0.461,0.896,0.622,0.303,0.532,0.506,�k�k��,6.1,��
2024/04/10,02:50,0.478,0.719,0.462,0.897,0.623,0.303,0.533,0.504,�k�k��,5.4,��
2024/04/10,03:00,0.477,0.718,0.461,0.896,0.622,0.303,0.533,0.505,�k��,5.3,��
2024/04/10,03:10,0.478,0.718,0.462,0.898,0.622,0.303,0.533,0.506,�k��,5.9,��
2024/04/10,03:20,0.478,0.721,0.461,0.894,0.623,0.304,0.533,0.504,�k��,5.5,��
2024/04/10,03:30,0.477,0.720,0.460,0.895,0.622,0.302,0.532,0.504,�k��,4.0,��
2024/04/10,03:40,0.479,0.721,0.462,0.895,0.623,0.304,0.532,0.503,�k��,5.7,��
2024/04/10,03:50,0.480,0.723,0.461,0.895,0.623,0.303,0.532,0.504,�k��,5.3,��
2024/04/10,04:00,0.478,0.722,0.459,0.895,0.623,0.303,0.534,0.503,�k��,6.4,��
2024/04/10,04:10,0.478,0.721,0.460,0.897,0.623,0.304,0.532,0.505,�k��,5.3,��
2024/04/10,04:20,0.477,0.722,0.463,0.898,0.623,0.302,0.534,0.506,�k�k��,6.1,��
2024/04/10,04:30,0.478,0.723,0.460,0.896,0.625,0.303,0.534,0.503,�k�k��,5.2,��
2024/04/10,04:40,0.479,0.721,0.461,0.896,0.623,0.303,0.534,0.503,�k�k��,5.2,��
2024/04/10,04:50,0.479,0.722,0.461,0.895,0.625,0.303,0.533,0.503,�k�k��,5.2,��
2024/04/10,05:00,0.477,0.722,0.460,0.899,0.624,0.302,0.535,0.504,�k�k��,6.2,��
2024/04/10,05:10,0.479,0.720,0.461,0.896,0.623,0.302,0.533,0.503,�k��,6.5,��
2024/04/10,05:20,0.478,0.722,0.461,0.898,0.623,0.303,0.532,0.506,�k��,6.1,��
2024/04/10,05:30,0.477,0.721,0.461,0.897,0.626,0.302,0.532,0.503,�k��,4.9,��
2024/04/10,05:40,0.479,0.723,0.460,0.896,0.626,0.303,0.532,0.504,�k��,4.8,��
2024/04/10,05:50,0.478,0.720,0.462,0.896,0.624,0.304,0.533,0.503,�k��,5.3,��
2024/04/10,06:00,0.478,0.721,0.461,0.897,0.624,0.302,0.532,0.503,�k��,6.2,��
2024/04/10,06:10,0.478,0.723,0.460,0.900,0.626,0.303,0.534,0.503,�k��,5.0,��
2024/04/10,06:20,0.479,0.724,0.461,0.897,0.626,0.303,0.535,0.504,�k�k��,6.1,��
2024/04/10,06:30,0.479,0.723,0.460,0.897,0.626,0.304,0.533,0.504,�k�k��,4.9,��
2024/04/10,06:40,0.478,0.723,0.461,0.898,0.624,0.302,0.534,0.503,�k�k��,5.5,��
2024/04/10,06:50,0.478,0.724,0.463,0.897,0.626,0.302,0.535,0.505,�k�k��,4.6,��
2024/04/10,07:00,0.480,0.724,0.461,0.898,0.626,0.303,0.537,0.504,�k�k��,5.1,��
2024/04/10,07:10,0.477,0.724,0.462,0.898,0.626,0.303,0.536,0.504,�k,4.2,��
2024/04/10,07:20,0.479,0.725,0.462,0.897,0.626,0.303,0.534,0.504,�k,4.5,��
2024/04/10,07:30,0.480,0.724,0.461,0.898,0.626,0.302,0.536,0.504,�k�k��,5.6,��
2024/04/10,07:40,0.480,0.725,0.462,0.898,0.628,0.302,0.537,0.504,�k,4.6,��
2024/04/10,07:50,0.481,0.726,0.462,0.899,0.625,0.303,0.537,0.504,�k,4.3,��
2024/04/10,08:00,0.481,0.724,0.461,0.900,0.628,0.303,0.537,0.505,�k,4.5,��
2024/04/10,08:10,0.482,0.725,0.462,0.900,0.628,0.301,0.536,0.506,�k,4.2,��
2024/04/10,08:20,0.480,0.723,0.463,0.899,0.629,0.301,0.537,0.506,�k�k��,3.4,��
2024/04/10,08:30,0.481,0.724,0.463,0.901,0.629,0.303,0.536,0.506,�k�k��,7.2,��
2024/04/10,08:40,0.482,0.726,0.463,0.902,0.627,0.302,0.537,0.505,�k�k��,6.4,��
2024/04/10,08:50,0.480,0.724,0.464,0.901,0.629,0.302,0.534,0.506,�k�k��,6.1,��
2024/04/10,09:00,0.481,0.726,0.464,0.901,0.629,0.302,0.533,0.504,�k,4.9,��
2024/04/10,09:10,0.481,0.726,0.464,0.901,0.630,0.302,0.533,0.504,�k�k��,6.3,��
2024/04/10,09:20,0.481,0.725,0.464,0.903,0.627,0.302,0.534,0.505,�k,5.3,��
2024/04/10,09:30,0.482,0.726,0.463,0.901,0.631,0.302,0.534,0.503,�k,4.9,��
2024/04/10,09:40,0.482,0.726,0.464,0.903,0.630,0.303,0.533,0.504,�k�k��,6.4,��
2024/04/10,09:50,0.483,0.726,0.465,0.901,0.631,0.303,0.534,0.505,�k�k��,6.4,��
2024/04/10,10:00,0.483,0.729,0.465,0.903,0.631,0.304,0.534,0.504,�k�k��,6.5,��
2024/04/10,10:10,0.483,0.729,0.464,0.905,0.632,0.303,0.533,0.504,�k�k��,6.5,��
2024/04/10,10:20,0.483,0.729,0.466,0.903,0.634,0.304,0.534,0.504,�k��,6.3,��
2024/04/10,10:30,0.483,0.729,0.466,0.902,0.633,0.301,0.534,0.504,�k�k��,6.6,��
2024/04/10,10:40,0.482,0.729,0.466,0.903,0.631,0.303,0.534,0.503,�k�k��,5.8,��
2024/04/10,10:50,0.482,0.731,0.467,0.904,0.633,0.302,0.535,0.505,�k�k��,5.3,��
2024/04/10,11:00,0.484,0.731,0.467,0.904,0.632,0.304,0.535,0.504,�k��,6.1,��
2024/04/10,11:10,0.485,0.730,0.467,0.903,0.632,0.304,0.534,0.503,�k��,5.4,��
2024/04/10,11:20,0.485,0.733,0.466,0.902,0.632,0.303,0.535,0.505,�k��,5.8,��
2024/04/10,11:30,0.485,0.731,0.469,0.904,0.634,0.302,0.536,0.504,�k��,5.6,��
2024/04/10,11:40,0.484,0.732,0.467,0.904,0.635,0.303,0.536,0.505,�k��,5.7,��
2024/04/10,11:50,0.482,0.733,0.466,0.906,0.635,0.303,0.536,0.505,�k��,5.1,��
2024/04/10,12:00,0.484,0.733,0.466,0.903,0.634,0.302,0.538,0.506,�k��,4.9,��
2024/04/10,12:10,0.486,0.733,0.466,0.905,0.634,0.304,0.535,0.505,�k��,5.2,��
2024/04/10,12:20,0.483,0.736,0.467,0.903,0.634,0.305,0.537,0.504,�k��,4.6,��
2024/04/10,12:30,0.483,0.735,0.465,0.905,0.636,0.305,0.536,0.504,�k��,4.7,��
2024/04/10,12:40,0.486,0.734,0.467,0.906,0.634,0.306,0.538,0.506,���k��,4.1,��
2024/04/10,12:50,0.484,0.736,0.469,0.905,0.635,0.304,0.537,0.505,�k��,4.3,��
2024/04/10,13:00,0.485,0.736,0.468,0.906,0.635,0.305,0.537,0.505,���k��,4.5,��
2024/04/10,13:10,0.484,0.736,0.467,0.905,0.636,0.305,0.536,0.506,�k��,3.8,��
2024/04/10,13:20,0.485,0.737,0.467,0.905,0.637,0.305,0.537,0.505,�k��,4.1,��
2024/04/10,13:30,0.484,0.735,0.466,0.906,0.639,0.304,0.538,0.505,���k��,4.5,��
2024/04/10,13:40,0.485,0.736,0.468,0.907,0.639,0.306,0.538,0.507,�k��,3.6,��
2024/04/10,13:50,0.485,0.738,0.467,0.906,0.638,0.306,0.538,0.506,���k��,3.1,��
2024/04/10,14:00,0.487,0.738,0.467,0.905,0.639,0.305,0.539,0.506,���k��,2.9,��
2024/04/10,14:10,0.484,0.737,0.468,0.905,0.641,0.304,0.540,0.505,���k��,3.4,��
2024/04/10,14:20,0.488,0.737,0.467,0.907,0.638,0.305,0.539,0.506,���k��,2.3,��
2024/04/10,14:30,0.487,0.738,0.467,0.908,0.639,0.304,0.540,0.506,���k��,2.3,��
2024/04/10,14:40,0.487,0.738,0.469,0.907,0.638,0.306,0.539,0.505,���쓌,3.5,��
2024/04/10,14:50,0.484,0.740,0.466,0.907,0.639,0.306,0.538,0.505,���쓌,2.5,��
2024/04/10,15:00,0.485,0.739,0.468,0.907,0.640,0.306,0.540,0.506,�쓌,3.6,��
2024/04/10,15:10,0.486,0.741,0.468,0.907,0.638,0.306,0.539,0.507,�쓌,3.4,��
2024/04/10,15:20,0.485,0.741,0.468,0.909,0.640,0.306,0.538,0.505,���쓌,3.2,��
2024/04/10,15:30,0.485,0.741,0.469,0.908,0.639,0.306,0.540,0.506,���쓌,3.1,��
2024/04/10,15:40,0.487,0.741,0.468,0.911,0.638,0.307,0.539,0.506,�쓌,3.6,��
2024/04/10,15:50,0.487,0.738,0.469,0.906,0.640,0.306,0.541,0.506,��쓌,3.6,��
2024/04/10,16:00,0.486,0.739,0.468,0.908,0.641,0.305,0.540,0.507,��쓌,3.8,��
2024/04/10,16:10,0.486,0.741,0.468,0.906,0.640,0.307,0.540,0.504,��쓌,3.6,��
2024/04/10,16:20,0.487,0.741,0.469,0.907,0.642,0.306,0.540,0.505,��쓌,4.4,��
2024/04/10,16:30,0.486,0.744,0.467,0.909,0.639,0.305,0.540,0.505,��쓌,4.7,��
2024/04/10,16:40,0.487,0.741,0.471,0.908,0.642,0.306,0.540,0.507,��쓌,4.2,��
2024/04/10,16:50,0.487,0.743,0.470,0.906,0.642,0.306,0.539,0.507,��쓌,4.6,��
2024/04/10,17:00,0.487,0.744,0.471,0.906,0.642,0.305,0.540,0.507,��쓌,4.5,��
2024/04/10,17:10,0.486,0.742,0.468,0.907,0.643,0.306,0.538,0.508,��,4.4,��
2024/04/10,17:20,0.487,0.743,0.471,0.908,0.642,0.307,0.540,0.508,��,4.7,��
2024/04/10,17:30,0.487,0.743,0.470,0.907,0.640,0.307,0.540,0.507,��,4.6,��
2024/04/10,17:40,0.490,0.742,0.472,0.908,0.641,0.307,0.540,0.508,��,4.3,��
2024/04/10,17:50,0.488,0.744,0.471,0.910,0.643,0.307,0.538,0.510,��,3.8,��
2024/04/10,18:00,0.489,0.741,0.471,0.909,0.643,0.305,0.540,0.508,��,5.9,��
2024/04/10,18:10,0.488,0.742,0.470,0.908,0.643,0.308,0.539,0.509,��,5.8,��
2024/04/10,18:20,0.488,0.743,0.470,0.909,0.645,0.308,0.541,0.508,��,6.3,��
2024/04/10,18:30,0.489,0.743,0.470,0.909,0.644,0.306,0.541,0.507,��,6.2,��
2024/04/10,18:40,0.489,0.744,0.470,0.909,0.643,0.307,0.540,0.507,��,6.1,��
2024/04/10,18:50,0.489,0.742,0.471,0.909,0.645,0.306,0.542,0.507,��,6.3,��
2024/04/10,19:00,0.488,0.744,0.471,0.909,0.644,0.306,0.543,0.507,��,6.7,��
2024/04/10,19:10,0.488,0.743,0.470,0.910,0.645,0.306,0.544,0.507,��,6.4,��
2024/04/10,19:20,0.487,0.743,0.470,0.909,0.643,0.307,0.542,0.506,��,7.1,��
2024/04/10,19:30,0.488,0.741,0.470,0.909,0.644,0.307,0.544,0.508,��,7.5,��
2024/04/10,19:40,0.489,0.745,0.470,0.910,0.644,0.306,0.541,0.507,��,7.3,��
2024/04/10,19:50,0.488,0.743,0.472,0.909,0.644,0.306,0.543,0.507,��,7.5,��
2024/04/10,20:00,0.489,0.742,0.471,0.912,0.645,0.306,0.544,0.508,��,8.0,��
2024/04/10,20:10,0.489,0.743,0.472,0.909,0.643,0.306,0.542,0.508,��,7.0,��
2024/04/10,20:20,0.488,0.745,0.471,0.909,0.644,0.307,0.542,0.507,��,7.9,��
2024/04/10,20:30,0.489,0.744,0.471,0.910,0.646,0.307,0.542,0.508,��,7.7,��
2024/04/10,20:40,0.488,0.742,0.471,0.911,0.646,0.305,0.543,0.506,��쐼,7.1,��
2024/04/10,20:50,0.488,0.743,0.472,0.911,0.644,0.306,0.542,0.507,��쐼,7.1,��
2024/04/10,21:00,0.488,0.743,0.470,0.908,0.645,0.307,0.543,0.507,��,7.2,��
2024/04/10,21:10,0.487,0.743,0.469,0.908,0.644,0.305,0.543,0.507,��,6.9,��
2024/04/10,21:20,0.489,0.745,0.472,0.910,0.642,0.305,0.544,0.506,��쐼,6.7,��
2024/04/10,21:30,0.489,0.744,0.471,0.909,0.643,0.306,0.544,0.508,��,7.2,��
2024/04/10,21:40,0.486,0.743,0.471,0.909,0.645,0.306,0.543,0.507,��쐼,6.4,��
2024/04/10,21:50,0.488,0.745,0.471,0.910,0.645,0.307,0.543,0.506,��,6.4,��
2024/04/10,22:00,0.489,0.743,0.470,0.910,0.647,0.305,0.542,0.507,��쐼,6.2,��
2024/04/10,22:10,0.488,0.743,0.469,0.909,0.643,0.306,0.543,0.508,��쐼,6.3,��
2024/04/10,22:20,0.487,0.743,0.470,0.912,0.646,0.306,0.542,0.507,��쐼,6.7,��
2024/04/10,22:30,0.487,0.744,0.470,0.910,0.644,0.306,0.542,0.508,��,7.2,��
2024/04/10,22:40,0.488,0.743,0.471,0.912,0.643,0.305,0.540,0.508,��,8.3,��
2024/04/10,22:50,0.489,0.743,0.471,0.910,0.647,0.306,0.544,0.508,��,8.6,��
2024/04/10,23:00,0.489,0.743,0.469,0.911,0.645,0.306,0.543,0.506,��,8.6,��
2024/04/10,23:10,0.489,0.743,0.470,0.910,0.645,0.306,0.542,0.506,��쐼,7.5,��
2024/04/10,23:20,0.489,0.745,0.469,0.909,0.644,0.305,0.542,0.508,��,7.6,��
2024/04/10,23:30,0.489,0.744,0.471,0.910,0.647,0.307,0.542,0.508,��,8.0,��
2024/04/10,23:40,0.488,0.743,0.470,0.910,0.644,0.305,0.542,0.508,��,7.6,��
2024/04/10,23:50,0.488,0.744,0.472,0.910,0.645,0.305,0.542,0.508,��,9.3,��
